Flint, MI (48553)

2:18 AM EDT on March 30, 2015 (GMT -0400)
KC8EEL - Flint | | Change Station
CLOSE
Current Station
Personal Weather Station
Location: Flint, MI
Elevation: 771 ft
Nearby Weather Stations

Elev 771 ft 42.99 °N, 83.69 °W | Updated 12 minutes ago

Overcast
Overcast
39.4 °F
Feels Like 33 °F
N
10.3
Wind Variable Wind from West

Today
High -- | Low -- °F
--% Chance of Precip.
Yesterday
High -- | Low -- °F
Precip. -- in
7:20 AM 7:58 PM
Waxing Gibbous, 77% visible
Pressure 29.75 in
Visibility 10.0 miles
Clouds Few 2700 ft
Mostly Cloudy 4200 ft
Overcast 5000 ft
Windchill 33 °F
Dew Point 33 °F
Humidity 78%
Rainfall 0.00 in
Snow Depth Not available.
UV 0 out of 12
Pollen 5.90 out of 12
Air Quality Not available.
Flu Activity Not available.
METAR KFNT 300553Z AUTO 28019G25KT 10SM FEW027 BKN042 OVC050 05/01 A2973 RMK AO2 PK WND 28029/0501 SLP074 60000 T00500006 10050 20033 53012 $

More Conditions Fewer Conditions

Pressure 29.75 in
Visibility 10.0 miles
Clouds Few 2700 ft
Mostly Cloudy 4200 ft
Overcast 5000 ft
Windchill 33 °F
Dew Point 33 °F
Humidity 78%
Rainfall 0.00 in
Snow Depth Not available.
UV 0 out of 12
Pollen 5.90 out of 12
Air Quality Not available.
Flu Activity Not available.
METAR KFNT 300553Z AUTO 28019G25KT 10SM FEW027 BKN042 OVC050 05/01 A2973 RMK AO2 PK WND 28029/0501 SLP074 60000 T00500006 10050 20033 53012 $

More Conditions Fewer Conditions

10-Day Weather Forecast

Almanac

Astronomy

Mar. 30, 2015 Rise Set
Actual Time
Civil Twilight
Nautical Twilight
Astronomical Twilight
Moon
Length of Visible Light
Length of Day
Tomorrow will be .
, % of the Moon is Illuminated

Today's Extremes

State Highs State Lows

Community

WunderPhotos

Upload Photos

1,809,437 photos uploaded!

WunderBlogs® & News

Nearby

Air Quality

  Air Quality AQ Index Pollutant
Not available.

Snow Depth

Station Depth Elevation

Earthquake Activity

City Distance Mag. Time & Date
Minimum magnitude displayed is 2.5.

Coastal Water Temperatures

Place Temperature

Stations

Nearby Weather Stations

Station Location Temp. Windchill Dew Point Humidity Wind Precip. Elev Updated Type